Location: Wildcat Hills Observatory
(41.6350°N, 103.6812°W)
Time: 03:25:58
(UTC-06:00)

Cosmos 1908 - Pass Details

Date: 23 June 2018
Orbit: 512 x 533 km, 82.5° (Epoch: 24 September)

Event Time Altitude Azimuth Distance (km) Brightness Sun altitude
Rises 22:05:35 0° 348° (NNW) 2,654 8.0 -13.8°
Reaches altitude 10° 22:07:44 10° 344° (NNW) 1,764 7.0 -14.1°
Maximum altitude 22:11:32 59° 265° (W) 610 3.7 -14.5°
Enters shadow 22:14:27 16° 189° (S) 1,406 5.0 -14.8°
